パンスターズ彗星

C/2016 R2 ( PanSTARRS )

English version
Home page
Updated on November 23, 2017

---------------------------------------------------------------------

・ プロフィール

発見日 2016年9月7日
発見光度 19.1等
発見者 Pan-STARRS 1 telescope (Haleakala)

・ 写真集

・ 軌道要素

Epoch 2018 May 2.0 TT = JDT 2458240.5
T 2018 May  9.58467 TT                                  MPCW
q   2.6023597            (2000.0)            P               Q
z  +0.0014026      Peri.   33.19251     -0.14727240     -0.52443328
 +/-0.0000009      Node    80.56897     +0.61562231     -0.71221741
e   0.9963500      Incl.   58.22349     +0.77415761     +0.46660057
From 455 observations 2016 Aug. 30-2017 Nov. 2, mean residual 0".4.

・ 星図

・ 光度変化

        m1 = 5.0 + 5 logΔ + 10.0 log r

---------------------------------------------------------------------

軌道要素はM.P.E.C. 2017-V13に掲載されたものです。
星図はステラナビゲータ Ver.10 (アストロアーツ) で作成したものです。
光度グラフはComet for Windowsで作成したものです。

---------------------------------------------------------------------

Copyright(C) Seiichi Yoshida (comet@aerith.net). All rights reserved.